BADR-7 (ARABSAT-6B)

Last updated on Fri Dec 19 2025 00:02:51 GMT+0000 (Coordinated Universal Time)

1 41029U 15065B 25352.19350057 .00000170 00000+0 00000+0 0 9996 2 41029 0.0446 235.5166 0005931 11.8551 295.3794 1.00274268 36951
UTC large
Height (km)
Speed (km/s)
/
Latitude / Longitude
Inclination (degrees)
Orbital Period (minutes)
Azimuth
Elevation
Range (km)
Doppler Factor

Next 0 passes for location: London (51.5072 / 0.1276)

Sorry there are no passes over London.